User: anonymous   Login
Location: Argonnex
(45.9500°N, 6.1333°E)
Time: 20:04:45
(UTC+00:00)
Language:

METEOR 2-8 DEB - Orbit

View from above orbital plane
View from above orbital plane
View from above satellite
View from above satellite

Ground track
Ground track

The orbit data is extracted from the following two-line orbital elements,

1 36355U 82025AR  24059.59690623  .00005174  00000-0  23743-2 0  9997
2 36355  82.5261 168.1558 0012273  51.5875 308.6406 14.21087067 92125
Epoch (UTC): 28 February 2024 14:19:32
Eccentricity: 0.0012273
inclination: 82.5261°
perigee height: 813 km
apogee height: 830 km
right ascension of ascending node: 168.1558°
argument of perigee: 51.5875°
revolutions per day: 14.21087067
mean anomaly at epoch: 308.6406°
orbit number at epoch: 9212

The dashed part of the orbit path shows where the satellite is in the earth's shadow,  

DLR